LRC627 MSLP-MROC

Flight info

Callsign LRC627
Flight time 1h 3m
Altitude 37000
Route ALTEG2W ALTEG UG436 LIB BARRA3L
Aircraft A320/M-SDE3FGHIRWY/LB1

Departure

Time 2026-05-05 01:19
Airport El Salvador International Airport Saint Óscar Arnulfo Romero y Galdámez (MSLP)

Arrival

Time 2026-05-05 02:23
Airport Juan Santamaría International Airport (MROC)
Time Latitude Longitude Altitude Speed Heading
2026-05-05 00:57 13.44406 -89.05700 94 ft 0 kts 342°
2026-05-05 01:09 13.44403 -89.05699 94 ft 3 kts 342°
2026-05-05 01:09 13.44378 -89.05691 94 ft 4 kts 342°
2026-05-05 01:09 13.44358 -89.05684 93 ft 4 kts 345°
2026-05-05 01:09 13.44335 -89.05682 94 ft 4 kts 50°
2026-05-05 01:10 13.44333 -89.05682 93 ft 4 kts 69°
2026-05-05 01:10 13.44343 -89.05680 93 ft 3 kts 344°
2026-05-05 01:10 13.44338 -89.05677 93 ft 4 kts 18°
2026-05-05 01:10 13.44330 -89.05689 93 ft 3 kts 69°
2026-05-05 01:11 13.44324 -89.05706 94 ft 1 kts 70°
2026-05-05 01:14 13.44334 -89.05679 94 ft 14 kts 71°
2026-05-05 01:14 13.44372 -89.05569 98 ft 16 kts 70°
2026-05-05 01:14 13.44407 -89.05471 96 ft 13 kts 69°
2026-05-05 01:15 13.44394 -89.05394 99 ft 11 kts 140°
2026-05-05 01:15 13.44374 -89.05328 99 ft 14 kts 73°
2026-05-05 01:15 13.44404 -89.05230 99 ft 13 kts 71°
2026-05-05 01:15 13.44433 -89.05149 100 ft 11 kts 69°
2026-05-05 01:16 13.44463 -89.05068 101 ft 17 kts 69°
2026-05-05 01:16 13.44515 -89.04921 102 ft 24 kts 70°
2026-05-05 01:16 13.44574 -89.04755 103 ft 25 kts 70°
2026-05-05 01:16 13.44636 -89.04582 105 ft 26 kts 69°
2026-05-05 01:17 13.44702 -89.04401 108 ft 27 kts 69°
2026-05-05 01:17 13.44719 -89.04265 109 ft 9 kts 138°
2026-05-05 01:17 13.44690 -89.04239 109 ft 0 kts 146°
2026-05-05 01:18 13.44635 -89.04216 109 ft 15 kts 166°
2026-05-05 01:18 13.44568 -89.04262 108 ft 1 kts 246°
2026-05-05 01:18 13.44559 -89.04284 109 ft 14 kts 249°
2026-05-05 01:19 13.44425 -89.04657 105 ft 93 kts 250°
2026-05-05 01:19 13.44124 -89.05494 94 ft 154 kts 250°
2026-05-05 01:19 13.43724 -89.06623 470 ft 172 kts 249°
2026-05-05 01:19 13.43334 -89.07802 1123 ft 176 kts 251°
2026-05-05 01:20 13.42929 -89.08959 1914 ft 175 kts 250°
2026-05-05 01:20 13.42486 -89.10178 2390 ft 192 kts 249°
2026-05-05 01:20 13.41888 -89.11486 2701 ft 214 kts 238°
2026-05-05 01:20 13.40991 -89.12777 3066 ft 232 kts 227°
2026-05-05 01:21 13.39775 -89.13973 3465 ft 253 kts 216°
2026-05-05 01:21 13.38233 -89.14957 4042 ft 267 kts 203°
2026-05-05 01:21 13.36466 -89.15589 4833 ft 271 kts 186°
2026-05-05 01:21 13.34593 -89.15580 5603 ft 271 kts 163°
2026-05-05 01:22 13.32890 -89.14792 6393 ft 269 kts 139°
2026-05-05 01:22 13.31642 -89.13405 7148 ft 270 kts 124°
2026-05-05 01:22 13.30498 -89.11859 7952 ft 275 kts 124°
2026-05-05 01:22 13.29321 -89.10288 8738 ft 280 kts 124°
2026-05-05 01:23 13.28125 -89.08691 9522 ft 285 kts 124°
2026-05-05 01:23 13.26910 -89.07057 10229 ft 293 kts 124°
2026-05-05 01:23 13.25628 -89.05328 10488 ft 316 kts 124°
2026-05-05 01:23 13.24256 -89.03475 10864 ft 333 kts 124°
2026-05-05 01:24 13.22836 -89.01569 11516 ft 339 kts 125°
2026-05-05 01:24 13.21410 -88.99666 12219 ft 343 kts 126°
2026-05-05 01:24 13.19946 -88.97716 12936 ft 347 kts 126°
2026-05-05 01:24 13.18470 -88.95743 13642 ft 350 kts 126°
2026-05-05 01:25 13.16981 -88.93746 14258 ft 354 kts 126°
2026-05-05 01:25 13.15480 -88.91729 14866 ft 357 kts 125°
2026-05-05 01:25 13.13962 -88.89696 15466 ft 361 kts 125°
2026-05-05 01:25 13.12428 -88.87644 16050 ft 364 kts 125°
2026-05-05 01:26 13.10879 -88.85569 16634 ft 368 kts 124°
2026-05-05 01:26 13.09319 -88.83477 17204 ft 371 kts 124°
2026-05-05 01:26 13.07767 -88.81393 17757 ft 374 kts 124°
2026-05-05 01:26 13.06180 -88.79259 18294 ft 378 kts 124°
2026-05-05 01:27 13.04577 -88.77109 18756 ft 382 kts 124°
2026-05-05 01:27 13.02952 -88.74936 19207 ft 386 kts 124°
2026-05-05 01:27 13.01311 -88.72744 19670 ft 389 kts 124°
2026-05-05 01:27 12.99655 -88.70532 20127 ft 393 kts 124°
2026-05-05 01:28 12.97983 -88.68298 20592 ft 397 kts 125°
2026-05-05 01:28 12.96315 -88.66067 21038 ft 401 kts 125°
2026-05-05 01:28 12.94609 -88.63788 21496 ft 405 kts 125°
2026-05-05 01:28 12.92884 -88.61487 21957 ft 409 kts 125°
2026-05-05 01:29 12.91143 -88.59163 22407 ft 413 kts 125°
2026-05-05 01:29 12.89383 -88.56817 22851 ft 417 kts 126°
2026-05-05 01:29 12.87608 -88.54451 23284 ft 421 kts 126°
2026-05-05 01:29 12.85819 -88.52066 23671 ft 424 kts 126°
2026-05-05 01:30 12.84012 -88.49660 24032 ft 427 kts 126°
2026-05-05 01:30 12.82199 -88.47239 24402 ft 429 kts 126°
2026-05-05 01:30 12.80375 -88.44804 24780 ft 432 kts 126°
2026-05-05 01:30 12.78566 -88.42391 25143 ft 434 kts 126°
2026-05-05 01:31 12.76721 -88.39934 25509 ft 436 kts 126°
2026-05-05 01:31 12.74865 -88.37468 25866 ft 438 kts 126°
2026-05-05 01:31 12.72999 -88.34988 26217 ft 441 kts 126°
2026-05-05 01:31 12.71125 -88.32492 26558 ft 443 kts 126°
2026-05-05 01:32 12.69243 -88.29984 26888 ft 445 kts 126°
2026-05-05 01:32 12.67353 -88.27463 27214 ft 448 kts 127°
2026-05-05 01:32 12.65448 -88.24923 27545 ft 450 kts 127°
2026-05-05 01:32 12.63565 -88.22417 27849 ft 452 kts 127°
2026-05-05 01:33 12.61638 -88.19857 28164 ft 455 kts 127°
2026-05-05 01:33 12.59703 -88.17286 28473 ft 457 kts 127°
2026-05-05 01:33 12.57761 -88.14704 28774 ft 459 kts 127°
2026-05-05 01:33 12.55807 -88.12106 29066 ft 461 kts 127°
2026-05-05 01:34 12.53844 -88.09494 29363 ft 464 kts 127°
2026-05-05 01:34 12.51873 -88.06875 29648 ft 466 kts 127°
2026-05-05 01:34 12.49887 -88.04243 29917 ft 468 kts 127°
2026-05-05 01:34 12.47894 -88.01596 30148 ft 470 kts 127°
2026-05-05 01:35 12.45920 -87.98977 30374 ft 472 kts 127°
2026-05-05 01:35 12.43911 -87.96315 30598 ft 474 kts 127°
2026-05-05 01:35 12.41895 -87.93640 30816 ft 476 kts 127°
2026-05-05 01:35 12.39872 -87.90955 31036 ft 477 kts 127°
2026-05-05 01:36 12.37841 -87.88269 31245 ft 479 kts 127°
2026-05-05 01:36 12.35795 -87.85570 31470 ft 479 kts 127°
2026-05-05 01:36 12.33757 -87.82879 31778 ft 478 kts 127°
2026-05-05 01:36 12.31725 -87.80190 32086 ft 477 kts 127°
2026-05-05 01:37 12.29724 -87.77538 32385 ft 477 kts 127°
2026-05-05 01:37 12.27678 -87.74818 32691 ft 476 kts 127°
2026-05-05 01:37 12.25687 -87.72172 32991 ft 476 kts 127°
2026-05-05 01:37 12.23668 -87.69497 33301 ft 475 kts 127°
2026-05-05 01:38 12.21645 -87.66827 33613 ft 474 kts 128°
2026-05-05 01:38 12.19624 -87.64162 33928 ft 474 kts 128°
2026-05-05 01:38 12.17606 -87.61501 34215 ft 473 kts 128°
2026-05-05 01:38 12.15598 -87.58851 34503 ft 472 kts 128°
2026-05-05 01:39 12.13589 -87.56200 34791 ft 471 kts 128°
2026-05-05 01:39 12.11590 -87.53561 35069 ft 469 kts 128°
2026-05-05 01:39 12.09618 -87.50959 35341 ft 468 kts 128°
2026-05-05 01:39 12.07628 -87.48334 35625 ft 467 kts 128°
2026-05-05 01:40 12.05643 -87.45718 35903 ft 465 kts 128°
2026-05-05 01:40 12.03665 -87.43108 36180 ft 463 kts 128°
2026-05-05 01:40 12.01699 -87.40511 36459 ft 462 kts 128°
2026-05-05 01:40 11.99740 -87.37921 36734 ft 460 kts 128°
2026-05-05 01:41 11.97785 -87.35339 36868 ft 459 kts 129°
2026-05-05 01:41 11.95835 -87.32768 36892 ft 457 kts 129°
2026-05-05 01:41 11.91975 -87.27693 36895 ft 455 kts 129°
2026-05-05 01:42 11.88094 -87.22580 36900 ft 455 kts 129°
2026-05-05 01:42 11.84219 -87.17480 36892 ft 455 kts 129°
2026-05-05 01:43 11.80340 -87.12383 36888 ft 454 kts 129°
2026-05-05 01:43 11.76469 -87.07289 36899 ft 454 kts 129°
2026-05-05 01:44 11.72616 -87.02230 36896 ft 454 kts 129°
2026-05-05 01:44 11.68741 -86.97144 36889 ft 454 kts 129°
2026-05-05 01:45 11.64869 -86.92061 36899 ft 454 kts 129°
2026-05-05 01:45 11.60995 -86.86980 36904 ft 453 kts 129°
2026-05-05 01:46 11.57125 -86.81906 36904 ft 453 kts 129°
2026-05-05 01:46 11.53280 -86.76876 36905 ft 453 kts 129°
2026-05-05 01:47 11.49413 -86.71818 36906 ft 452 kts 129°
2026-05-05 01:47 11.45547 -86.66759 36918 ft 452 kts 129°
2026-05-05 01:48 11.41682 -86.61699 36923 ft 452 kts 130°
2026-05-05 01:48 11.37823 -86.56651 36918 ft 451 kts 130°
2026-05-05 01:49 11.33969 -86.51606 36918 ft 451 kts 130°
2026-05-05 01:49 11.30137 -86.46601 36918 ft 451 kts 130°
2026-05-05 01:50 11.26275 -86.41568 36924 ft 451 kts 130°
2026-05-05 01:50 11.22398 -86.36510 36910 ft 457 kts 129°
2026-05-05 01:51 11.18521 -86.31444 36909 ft 450 kts 129°
2026-05-05 01:51 11.14704 -86.26458 36908 ft 449 kts 129°
2026-05-05 01:52 11.10859 -86.21450 36915 ft 449 kts 129°
2026-05-05 01:52 11.07013 -86.16449 36913 ft 448 kts 129°
2026-05-05 01:53 11.03173 -86.11456 36915 ft 448 kts 129°
2026-05-05 01:53 10.99359 -86.06487 36922 ft 448 kts 129°
2026-05-05 01:54 10.95525 -86.01489 36923 ft 448 kts 129°
2026-05-05 01:54 10.91687 -85.96490 36927 ft 448 kts 129°
2026-05-05 01:55 10.87832 -85.91497 36930 ft 448 kts 129°
2026-05-05 01:55 10.83988 -85.86503 36933 ft 448 kts 129°
2026-05-05 01:56 10.80174 -85.81540 36930 ft 448 kts 129°
2026-05-05 01:56 10.76327 -85.76552 36938 ft 448 kts 129°
2026-05-05 01:57 10.72425 -85.71502 36615 ft 463 kts 129°
2026-05-05 01:57 10.70420 -85.68907 36350 ft 470 kts 129°
2026-05-05 01:57 10.68394 -85.66283 35562 ft 472 kts 129°
2026-05-05 01:58 10.66394 -85.63688 34590 ft 476 kts 128°
2026-05-05 01:58 10.64344 -85.61032 33662 ft 478 kts 128°
2026-05-05 01:58 10.62305 -85.58388 32537 ft 484 kts 128°
2026-05-05 01:58 10.60234 -85.55701 31647 ft 483 kts 128°
2026-05-05 01:59 10.58147 -85.53042 31008 ft 474 kts 129°
2026-05-05 01:59 10.56095 -85.50514 30778 ft 458 kts 129°
2026-05-05 01:59 10.54062 -85.48061 30547 ft 450 kts 130°
2026-05-05 01:59 10.52041 -85.45649 30323 ft 447 kts 130°
2026-05-05 02:00 10.50029 -85.43251 30035 ft 443 kts 130°
2026-05-05 02:00 10.48037 -85.40872 29389 ft 441 kts 129°
2026-05-05 02:00 10.46066 -85.38502 28819 ft 437 kts 129°
2026-05-05 02:00 10.44113 -85.36140 28240 ft 434 kts 129°
2026-05-05 02:01 10.42189 -85.33799 27839 ft 427 kts 129°
2026-05-05 02:01 10.40328 -85.31511 27713 ft 414 kts 129°
2026-05-05 02:01 10.38535 -85.29330 27589 ft 402 kts 129°
2026-05-05 02:01 10.36761 -85.27188 27451 ft 390 kts 129°
2026-05-05 02:02 10.35030 -85.25100 27147 ft 384 kts 129°
2026-05-05 02:02 10.33317 -85.23034 26766 ft 380 kts 129°
2026-05-05 02:02 10.31622 -85.20990 26359 ft 377 kts 129°
2026-05-05 02:02 10.29937 -85.18958 25952 ft 375 kts 129°
2026-05-05 02:03 10.28264 -85.16936 25553 ft 372 kts 129°
2026-05-05 02:03 10.26603 -85.14932 25151 ft 370 kts 129°
2026-05-05 02:03 10.24952 -85.12940 24770 ft 367 kts 129°
2026-05-05 02:03 10.23335 -85.10986 24393 ft 365 kts 129°
2026-05-05 02:04 10.21706 -85.09019 24005 ft 363 kts 129°
2026-05-05 02:04 10.20087 -85.07063 23637 ft 360 kts 129°
2026-05-05 02:04 10.18480 -85.05119 23223 ft 358 kts 129°
2026-05-05 02:04 10.16884 -85.03192 22814 ft 355 kts 129°
2026-05-05 02:05 10.15299 -85.01281 22427 ft 352 kts 129°
2026-05-05 02:05 10.13728 -84.99386 22040 ft 349 kts 129°
2026-05-05 02:05 10.12171 -84.97507 21666 ft 347 kts 129°
2026-05-05 02:05 10.10623 -84.95640 21299 ft 344 kts 129°
2026-05-05 02:06 10.09110 -84.93818 20945 ft 341 kts 129°
2026-05-05 02:06 10.07587 -84.91982 20592 ft 339 kts 129°
2026-05-05 02:06 10.06080 -84.90164 20242 ft 336 kts 129°
2026-05-05 02:06 10.04579 -84.88356 19897 ft 334 kts 129°
2026-05-05 02:07 10.03078 -84.86549 19177 ft 337 kts 129°
2026-05-05 02:07 10.01586 -84.84755 18722 ft 328 kts 129°
2026-05-05 02:07 10.00129 -84.83002 18200 ft 322 kts 129°
2026-05-05 02:07 9.98697 -84.81280 17571 ft 318 kts 129°
2026-05-05 02:08 9.97280 -84.79579 16956 ft 314 kts 129°
2026-05-05 02:08 9.95878 -84.77892 16354 ft 311 kts 129°
2026-05-05 02:08 9.94513 -84.76247 15779 ft 308 kts 129°
2026-05-05 02:08 9.93141 -84.74596 15216 ft 304 kts 129°
2026-05-05 02:09 9.91783 -84.72961 14658 ft 302 kts 129°
2026-05-05 02:09 9.90437 -84.71342 14121 ft 299 kts 129°
2026-05-05 02:09 9.89105 -84.69738 13562 ft 296 kts 129°
2026-05-05 02:09 9.87777 -84.68139 12827 ft 298 kts 129°
2026-05-05 02:10 9.86439 -84.66531 12163 ft 297 kts 129°
2026-05-05 02:10 9.85119 -84.64946 11558 ft 294 kts 129°
2026-05-05 02:10 9.83814 -84.63378 10901 ft 294 kts 130°
2026-05-05 02:10 9.82312 -84.62039 10680 ft 287 kts 150°
2026-05-05 02:11 9.80429 -84.61392 10618 ft 289 kts 173°
2026-05-05 02:11 9.78435 -84.61541 10621 ft 290 kts 196°
2026-05-05 02:11 9.76649 -84.62479 10616 ft 292 kts 220°
2026-05-05 02:11 9.75379 -84.64069 10617 ft 292 kts 244°
2026-05-05 02:12 9.74833 -84.66041 10612 ft 289 kts 267°
2026-05-05 02:12 9.75959 -84.69608 10512 ft 260 kts 312°
2026-05-05 02:12 9.77344 -84.70706 10393 ft 248 kts 336°
2026-05-05 02:13 9.78955 -84.71143 10343 ft 243 kts 359°
2026-05-05 02:13 9.80615 -84.70907 10296 ft 241 kts 22°
2026-05-05 02:13 9.82032 -84.70040 10245 ft 239 kts 45°
2026-05-05 02:13 9.83008 -84.68688 10202 ft 238 kts 67°
2026-05-05 02:14 9.83527 -84.67093 10160 ft 239 kts 73°
2026-05-05 02:14 9.84009 -84.65483 10114 ft 239 kts 73°
2026-05-05 02:14 9.84495 -84.63872 10069 ft 239 kts 73°
2026-05-05 02:14 9.84984 -84.62266 10023 ft 238 kts 73°
2026-05-05 02:15 9.85473 -84.60666 9977 ft 237 kts 73°
2026-05-05 02:15 9.85959 -84.59068 9899 ft 238 kts 73°
2026-05-05 02:15 9.86438 -84.57492 9703 ft 236 kts 73°
2026-05-05 02:15 9.86920 -84.55906 9448 ft 235 kts 73°
2026-05-05 02:16 9.87398 -84.54332 9198 ft 233 kts 73°
2026-05-05 02:16 9.87875 -84.52763 8953 ft 232 kts 73°
2026-05-05 02:16 9.88347 -84.51204 8710 ft 230 kts 73°
2026-05-05 02:16 9.88818 -84.49654 8464 ft 229 kts 73°
2026-05-05 02:17 9.89285 -84.48112 8222 ft 228 kts 73°
2026-05-05 02:17 9.89767 -84.46582 7954 ft 228 kts 71°
2026-05-05 02:17 9.90313 -84.45067 7657 ft 229 kts 69°
2026-05-05 02:17 9.90892 -84.43550 7216 ft 235 kts 68°
2026-05-05 02:18 9.91481 -84.42001 6872 ft 234 kts 69°
2026-05-05 02:18 9.92042 -84.40509 6597 ft 225 kts 69°
2026-05-05 02:18 9.92586 -84.39058 6327 ft 215 kts 69°
2026-05-05 02:18 9.93105 -84.37673 6079 ft 205 kts 69°
2026-05-05 02:19 9.93595 -84.36365 5836 ft 194 kts 69°
2026-05-05 02:19 9.94069 -84.35099 5568 ft 189 kts 69°
2026-05-05 02:19 9.94524 -84.33885 5344 ft 180 kts 68°
2026-05-05 02:19 9.94960 -84.32721 5129 ft 173 kts 68°
2026-05-05 02:20 9.95377 -84.31608 4914 ft 163 kts 68°
2026-05-05 02:20 9.95761 -84.30583 4717 ft 150 kts 68°
2026-05-05 02:20 9.96119 -84.29625 4534 ft 143 kts 68°
2026-05-05 02:20 9.96470 -84.28690 4355 ft 141 kts 68°
2026-05-05 02:21 9.96813 -84.27775 4172 ft 140 kts 68°
2026-05-05 02:21 9.97159 -84.26849 4001 ft 141 kts 68°
2026-05-05 02:21 9.97510 -84.25913 3813 ft 143 kts 68°
2026-05-05 02:21 9.97861 -84.24975 3613 ft 142 kts 68°
2026-05-05 02:22 9.98209 -84.24043 3408 ft 140 kts 69°
2026-05-05 02:22 9.98550 -84.23127 3215 ft 138 kts 68°
2026-05-05 02:22 9.98880 -84.22212 2990 ft 138 kts 66°
2026-05-05 02:22 9.99204 -84.21383 2990 ft 107 kts 65°
2026-05-05 02:23 9.99405 -84.20853 3022 ft 56 kts 69°
2026-05-05 02:23 9.99496 -84.20614 3032 ft 27 kts 70°
2026-05-05 02:23 9.99545 -84.20465 3037 ft 15 kts 72°
2026-05-05 02:23 9.99600 -84.20432 3038 ft 0 kts 356°
2026-05-05 02:24 9.99610 -84.20433 3036 ft 2 kts 353°
2026-05-05 02:24 9.99631 -84.20431 3035 ft 7 kts 21°
2026-05-05 02:24 9.99679 -84.20367 3034 ft 13 kts 66°
2026-05-05 02:24 9.99693 -84.20330 3034 ft 4 kts 71°
2026-05-05 02:25 9.99706 -84.20297 3035 ft 11 kts 69°
2026-05-05 02:25 9.99738 -84.20210 3034 ft 14 kts 69°
2026-05-05 02:25 9.99771 -84.20180 3034 ft 6 kts 341°
2026-05-05 02:25 9.99800 -84.20189 3034 ft 4 kts 342°
2026-05-05 02:26 9.99808 -84.20192 3034 ft 1 kts 341°
2026-05-05 02:26 9.99817 -84.20195 3034 ft 0 kts 340°